Flag for Pakistan Weather past 2 weeks in Peshawar, Pakistan

Now
86 °F

Warm.


Feels Like: 91 °F
Forecast: 74 / 104 °F
Wind: N/A

Location: Peshawar Airport

Current Time: Aug 31, 2014 at 9:34:25 AM

Latest Report: Aug 31, 2014 at 9:00 AM


Visibility: N/A

Pressure: 29.71 "Hg

Humidity: 59%

Dew point: 70 °F

Location of PeshawarLocation

Historic Weather in Peshawar — Graph

°F

Peshawar temperature yesterday

Maximum temperature yesterday: 99 °F (at 3:00 PM)
Minimum temperature yesterday: 77 °F (at 5:00 AM)
Average temperature yesterday: 87 °F

Past Weeks' High & Low Weather Summary

 TemperatureHumidityPressure
High100 °F (Aug 18, 5:00 PM)89% (Aug 16, 8:00 AM)29.80 "Hg (Aug 16, 8:00 AM)
Low72 °F (Aug 17, 3:00 AM)35% (Aug 18, 3:00 PM)29.50 "Hg (Aug 21, 5:00 PM)
Average86 °F61%29.68 "Hg
* Reported Aug 16 8:00 AM — Aug 31 8:00 AM, Peshawar, Weather by CustomWeather, © 2014

Note: Actual official high and low records may vary slightly from our data, if they occured in-between our weather recording intervals... More about our weather records

Advertising

Peshawar weather history for previous 24 hours

 ConditionsComfort  
Time TempWeatherWind HumidityBarometerVisibility
8:00 AM
Aug 31
84 °FWarm.N/A66%29.71 "HgN/A
7:00 AM79 °FWarm.N/A79%29.68 "HgN/A
6:00 AM79 °FWarm.N/A79%29.68 "HgN/A
5:00 AM79 °FHaze.No wind70%29.65 "Hg2 mi
4:00 AM81 °FHaze.No wind62%29.62 "Hg2 mi
3:00 AM81 °FWarm.N/A58%29.59 "HgN/A
2:00 AM81 °FWarm.N/A58%29.59 "HgN/A
12:00 AM84 °FWarm.N/A51%29.62 "HgN/A
11:00 PM
Aug 30
86 °FWarm.N/A52%29.62 "HgN/A
9:00 PM88 °FWarm.N/A52%29.62 "HgN/A
8:00 PM90 °FHot.N/A49%29.62 "HgN/A
7:00 PM90 °FPassing clouds.No wind49%29.62 "Hg2 mi
6:00 PM93 °FExtremely hot.N/A49%29.59 "HgN/A
5:00 PM95 °FExtremely hot.N/A47%29.59 "HgN/A
4:00 PM95 °FExtremely hot.N/A47%29.59 "HgN/A
3:00 PM99 °FExtremely hot.N/A47%29.62 "HgN/A
2:00 PM97 °FExtremely hot.N/A44%29.65 "HgN/A
1:00 PM95 °FExtremely hot.N/A50%29.71 "HgN/A
12:00 PM91 °FHot.N/A52%29.74 "HgN/A
11:00 AM90 °FHot.N/A55%29.74 "HgN/A
10:00 AM88 °FWarm.N/A59%29.77 "HgN/A
9:00 AM84 °FHaze.No wind62%29.77 "Hg2 mi
Weather by CustomWeather, © 2014

See weather overviewHow to use our weather pages